Home > Weather > Montpellier > Past weeks

Flag for France Past Weather in Montpellier, Languedoc-Roussillon, France — Yesterday and Last 2 Weeks

Now
70 °F

Clear.


Feels Like: 70 °F
Forecast: 63 / 89 °F
Wind: 6 mph from Southeast

Location: Montpellier Airport

Current Time: Jul 2, 2016 at 2:16:38 AM

Latest Report: Jul 2, 2016 at 1:30 AM


Visibility: 10 mi

Pressure: 30.01 "Hg

Humidity: 88%

Dew Point: 66 °F

Location of MontpellierLocation

Past Weather in Montpellier — Graph

°F

Montpellier Temperature Yesterday

Maximum temperature yesterday: 84 °F (at 12:30 PM)
Minimum temperature yesterday: 68 °F (at 4:00 AM)
Average temperature yesterday: 76 °F

High & Low Weather Summary for the Past Weeks

 TemperatureHumidityPressure
High90 °F (Jun 25, 1:35 PM)94% (Jun 22, 2:00 AM)30.21 "Hg (Jun 22, 2:00 AM)
Low57 °F (Jun 17, 4:30 AM)24% (Jun 27, 3:30 PM)29.83 "Hg (Jun 17, 1:00 AM)
Average73 °F57%30.06 "Hg
* Reported Jun 17 1:00 AM — Jul 2 1:00 AM, Montpellier, Weather by CustomWeather, © 2016

Note: Actual official high and low records may vary slightly from our data, if they occured in-between our weather recording intervals... More about our weather records

Advertising

Montpellier Weather History for the Previous 24 Hours

Scroll right to see more
 ConditionsComfort  
Time TempWeatherWind HumidityBarometerVisibility
1:00 AM
Sat, Jul 2
72 °FClear.5 mph78%30.04 "Hg10 mi
12:30 AM72 °FClear.6 mph78%30.04 "Hg10 mi
12:00 AM72 °FClear.6 mph73%30.04 "Hg10 mi
11:30 PM
Fri, Jul 1
73 °FClear.9 mph69%30.04 "Hg10 mi
11:00 PM73 °FClear.9 mph65%30.04 "Hg10 mi
10:30 PM73 °FClear.8 mph61%30.04 "Hg10 mi
10:00 PM73 °FSunny.8 mph65%30.04 "Hg10 mi
9:30 PM73 °FSunny.9 mph65%30.01 "Hg10 mi
9:00 PM73 °FSunny.13 mph69%30.01 "Hg10 mi
8:30 PM75 °FSunny.12 mph65%30.01 "Hg10 mi
8:00 PM75 °FSunny.12 mph61%30.01 "Hg10 mi
7:30 PM77 °FSunny.14 mph57%30.01 "Hg10 mi
7:00 PM77 °FSunny.15 mph57%29.98 "Hg10 mi
6:30 PM79 °FScattered clouds.12 mph54%29.98 "HgN/A
6:00 PM79 °FScattered clouds.13 mph61%30.01 "HgN/A
5:30 PM79 °FScattered clouds.13 mph61%30.01 "HgN/A
5:00 PM81 °FScattered clouds.9 mph54%30.01 "HgN/A
4:30 PM79 °FPassing clouds.9 mph58%30.01 "HgN/A
4:00 PM81 °FPassing clouds.12 mph54%30.01 "HgN/A
3:30 PM82 °FPassing clouds.10 mph51%30.01 "HgN/A
3:00 PM82 °FPassing clouds.12 mph51%30.01 "HgN/A
2:30 PM81 °FSunny.12 mph54%30.01 "Hg10 mi
2:00 PM81 °FSunny.12 mph54%30.04 "Hg10 mi
1:30 PM82 °FSunny.10 mph55%30.04 "Hg10 mi
1:00 PM82 °FSunny.9 mph55%30.04 "Hg10 mi
12:30 PM84 °FSunny.9 mph51%30.04 "Hg10 mi
12:00 PM82 °FPassing clouds.6 mph55%30.04 "HgN/A
11:30 AM82 °FSunny.6 mph55%30.04 "Hg10 mi
11:00 AM81 °FPassing clouds.5 mph54%30.04 "HgN/A
10:30 AM82 °FPassing clouds.5 mph51%30.04 "HgN/A
10:00 AM81 °FSunny.6 mph54%30.04 "Hg10 mi
9:30 AM79 °FPassing clouds.7 mph54%30.04 "HgN/A
9:00 AM77 °FSunny.10 mph57%30.04 "Hg10 mi
8:30 AM75 °FSunny.7 mph65%30.04 "Hg10 mi
8:00 AM73 °FSunny.5 mph65%30.04 "Hg10 mi
7:30 AM72 °FSunny.3 mph69%30.04 "Hg10 mi
7:00 AM70 °FClear.3 mph73%30.04 "Hg10 mi
6:30 AM68 °FPassing clouds.6 mph78%30.04 "HgN/A
6:00 AM68 °FClear.6 mph78%30.01 "Hg10 mi
5:30 AM68 °FClear.7 mph78%30.01 "Hg10 mi
5:00 AM68 °FPassing clouds.5 mph78%30.01 "HgN/A
4:30 AM68 °FClear.5 mph78%30.01 "Hg10 mi
4:00 AM68 °FClear.5 mph78%30.01 "Hg10 mi
3:30 AM70 °FClear.6 mph73%30.01 "Hg10 mi
3:00 AM70 °FPassing clouds.5 mph73%30.01 "HgN/A
2:30 AM70 °FClear.5 mph73%30.01 "Hg10 mi
2:00 AM70 °FClear.3 mph69%30.01 "Hg10 mi
Weather by CustomWeather, © 2016

See weather overviewHow to use our weather pages